weather.gov     
National Weather Service

Regional Weather Roundup
NWS Homepage
This page is being discontinued on March 12, 2014.
The same data is available at this site. Please update your bookmarks.
Thank you, and we apologize for the inconvenience.
Please send an email to SR-SRH.Webmaster@noaa.gov with any concerns.


Current Version
Previous Version:    01  02  03  04  05  06  07  08  09  10  11  12  13  14  15  16  17  18  19  20  21  22  23  24  25  26  27  
[Printable]
285
ASUS45 KBOI 192010
RWRID
WEATHER ROUNDUP FOR IDAHO
NATIONAL WEATHER SERVICE BOISE ID
200 PM MDT SAT APR 19 2014

NOTE: "FAIR" INDICATES FEW OR NO CLOUDS BELOW 12000 FEET
WITH NO SIGNIFICANT WEATHER AND/OR OBSTRUCTIONS TO VISIBILITY

IDZ012-014-192100-
SOUTHWEST IDAHO


CITY           SKY/WX    TMP DP  RH WIND       PRES   REMARKS
BOISE          MOSUNNY   70  23  17 SE9       29.91F
CALDWELL       MOSUNNY   70  30  23 SE15      29.91F
MOUNTAIN HOME  MOSUNNY   70  24  17 E8G17     29.91F
$$

IDZ016-017-192100-
SOUTHCENTRAL IDAHO


CITY           SKY/WX    TMP DP  RH WIND       PRES   REMARKS
BURLEY         SUNNY     66  29  24 CALM      29.97F
JEROME         SUNNY     65  24  21 VRB3      29.97F
TWIN FALLS     SUNNY     69  29  22 VRB3      29.97F
$$

IDZ019>023-192100-
SOUTHEAST IDAHO


CITY           SKY/WX    TMP DP  RH WIND       PRES   REMARKS
IDAHO FALLS    SUNNY     62  16  16 S8        30.01F
POCATELLO      MOSUNNY   65  21  18 NW9       30.01F
REXBURG        SUNNY     60  13  15 SW10      30.01F
$$

IDZ006-010-011-018-031-032-192100-
CENTRAL IDAHO MOUNTAINS


CITY           SKY/WX    TMP DP  RH WIND       PRES   REMARKS
MCCALL         MOSUNNY   59  24  26 S16       29.94F
HAILEY         MOSUNNY   61  21  21 SE12      30.01F
STANLEY          N/A     52   9  17 CALM      30.02S
SALMON         SUNNY     57  18  21 N8        29.92F
CHALLIS        SUNNY     63   9  12 SE8       29.93F
$$

IDZ002-004-006-007-026-192100-
NORTHERN IDAHO


CITY           SKY/WX    TMP DP  RH WIND       PRES   REMARKS
LEWISTON       SUNNY     63  28  26 E7        29.82F
LOWELL           N/A     66  29  24 N3        29.84F
COEUR D`ALENE  CLOUDY    57  34  41 CALM      29.85F
MULLAN PASS    PTSUNNY   46  20  35 VRB3      29.89S
$$




U.S. Dept. of Commerce
NOAA National Weather Service
1325 East West Highway
Silver Spring, MD 20910
E-mail: w-nws.webmaster@noaa.gov
Page last modified: May 16, 2007
NATIONAL WEATHER SERVICE: for Safety, for Work, for Fun - FOR LIFE